Regional Weather Roundup
Issued by NWS

Home | Current Version | Previous Version | Text Only | Print | Product List | Glossary Off
Versions: 1 2 3 4 5 6 7 8 9 10 11 12 13 14 15 16 17 18 19 20 21 22 23 24 25 26 27 28 29 30 31 32 33 34 35 36 37 38 39 40 41 42 43 44 45 46 47 48 49 50

000
ASUS43 KOAX 300402
RWRNE

WEATHER ROUNDUP FOR NEBRASKA
NATIONAL WEATHER SERVICE OMAHA NE
1000 PM CST THU JAN 29 2015

NOTES: SATELLITE DATA IS BEING USED TO AUGMENT CLOUD COVER ABOVE
       12000 FEET.
       "FAIR" INDICATES FEW OR NO CLOUDS BELOW 12,000 FEET WITH NO
       SIGNIFICANT WEATHER AND/OR OBSTRUCTIONS TO VISIBILITY.

  * THESE STATIONS DO NOT REPORT WEATHER SUCH AS RAIN...SNOW OR FOG.

NEZ001>004-019>022-054>056-300500-
NEBRASKA PANHANDLE

CITY           SKY/WX    TMP DP  RH WIND       PRES   REMARKS
SCOTTSBLUFF    PTCLDY    29  22  75 E7        30.38F WCI  22
ALLIANCE       CLEAR     26  17  68 S10       30.38F WCI  16
CHADRON        CLEAR     32  18  56 SW9       30.37F WCI  24
SIDNEY         PTCLDY    26  18  71 S6        30.41S WCI  19
$$

NEZ057>060-069>072-079>082-300500-
SOUTHWEST NEBRASKA

CITY           SKY/WX    TMP DP  RH WIND       PRES   REMARKS
NORTH PLATTE   PTCLDY    19  14  81 NE3       30.46S
IMPERIAL       PTCLDY    27  17  66 CALM      30.45F
MCCOOK         PTCLDY    24  17  74 SW5       30.48S WCI  18
$$

NEZ005>010-023>029-035>040-094-300500-
NORTH CENTRAL NEBRASKA

CITY           SKY/WX    TMP DP  RH WIND       PRES   REMARKS
VALENTINE      CLEAR     24  18  77 CALM      30.45S
BROKEN BOW     CLEAR     20  15  81 CALM      30.47S
ORD            CLEAR     21  16  81 CALM      30.48R
$$

NEZ041-046>049-061>064-073>077-083>087-300500-
SOUTH CENTRAL NEBRASKA

CITY           SKY/WX    TMP DP  RH WIND       PRES   REMARKS
GRAND ISLAND   CLEAR     24  18  77 CALM      30.51S
HASTINGS       PTCLDY    24  15  68 CALM      30.48F
KEARNEY *      PTCLDY    25  16  68 NW5       30.49S WCI  19
$$

NEZ011>018-030>034-042>045-300500-
NORTHEAST NEBRASKA

CITY           SKY/WX    TMP DP  RH WIND       PRES   REMARKS
NORFOLK        CLEAR     25  20  81 N3        30.51S
COLUMBUS *     CLEAR     23  16  74 NE5       30.53S WCI  17
TEKAMAH        PTCLDY    30  21  69 N9        30.55R WCI  22
$$

NEZ050>053-065>068-078-088>093-300500-
SOUTHEAST NEBRASKA

CITY           SKY/WX    TMP DP  RH WIND       PRES   REMARKS
LINCOLN        CLEAR     27  21  78 N5        30.55R WCI  22
OMAHA EPPLEY   CLEAR     29  22  75 N12       30.54R WCI  19
FALLS CITY     CLEAR     25  19  78 NW3       30.53R
$$

NEZ044-045-051>053-067-300500-
OMAHA AREA

CITY           SKY/WX    TMP DP  RH WIND       PRES   REMARKS
OMAHA EPPLEY   CLEAR     29  22  75 N12       30.54R WCI  19
OFFUTT AFB     CLEAR     30  22  73 N12       30.54R WCI  20
$$



USA.gov is the U.S. government's official web portal to all federal, state and local government web resources and services.